Hourly Data Report for November 28, 2004

SHERBROOKE A
QUEBEC

45°26'00.000" N
71°41'00.000" W
241.40 m
7028124
71610
YSC

Download Data

Hourly Data (November 2004)
Hourly Data Report for November 28, 2004
TIME
LST
Temp Definition
°C
Dew Point Definition
°C
Rel Hum Definition
%
Precip. Amount Definition
mm

Wind Dir Definition
10's deg

Wind Spd Definition
km/h
Visibility Definition
km
Stn Press Definition
kPa
Hmdx Definition


Wind Chill Definition


Weather Definition


00:00 2.9 -2.2 69   10 9 15.0 99.52      
01:00 3.0 -2.0 70   17 11 15.0 99.50      
02:00 3.1 -1.8 70   16 19 15.0 99.51      
03:00 2.5 -1.7 74   14 17 15.0 99.42      
04:00 3.7 -1.6 68   15 24 15.0 99.32      
05:00 3.7 -1.5 69   16 15 15.0 99.30      
06:00 3.7 -1.3 70   12 15 15.0 99.20      
07:00 3.7 -2.1 66   12 22 15.0 99.13      
08:00 3.8 -1.6 68   14 32 24.1 99.05     Mostly Cloudy
09:00 4.1 -1.4 67   12 41 24.1 98.88     Mostly Cloudy
10:00 4.8 -0.4 69   14 35 24.1 98.90     Mostly Cloudy
11:00 5.4 0.3 70   12 22 24.1 98.76     Cloudy
12:00 6.0 -0.1 65   13 37 24.1 98.58     Mostly Cloudy
13:00 5.8 1.6 74   12 33 24.1 98.45     Rain
14:00 6.4 2.3 75   13 30 24.1 98.34     Cloudy
15:00 6.6 3.0 78   14 30 19.3 98.21     Rain
16:00 7.0 4.2 82   15 19 19.3 98.15     Rain
17:00 6.9 4.8 86   10 7 19.3 98.07     Drizzle
18:00 6.9 6.0 94   24 13 3.1 98.23     Moderate Rain
19:00 6.5 5.9 96   19 9 5.6 98.28     Rain
20:00 4.4 3.1 91   30 19 12.9 98.41     Moderate Rain
21:00 3.5 2.6 94   27 9 15.0 98.45     Rain
22:00 3.0 2.2 94   16 7 15.0 98.43     Rain
23:00 2.8 2.1 95   15 6 15.0 98.47     Drizzle

Notes on Data Quality.

Legend

  • E = Estimated
  • M = Missing
  • NA = Not Available*
  • [empty] = Indicates an unobserved value
Date modified: